Tracking 35274 objects as of 11-Sep-2026
HD Live streaming from Space Station
objects crossing your sky now

IRAZU


IRAZU is no longer on orbit
IRAZU is classified as:


NORAD ID: 43468
Int'l Code: 1998-067NR
Launch date: November 30, 1998
Source: COSTA RICA (CRI)
Launch site: TYURATAM MISSILE AND SPACE COMPLEX (TTMTR)
Decay date: 2020-03-04

Uplink (MHz):
Downlink (MHz): 436.500
Beacon (MHz):
Mode: 9k6 FSK
Call sign: TI0IRA
Status: Inactive

Your satellite tracking list
Your tracking list is empty




NASA's NSSDC Master Catalog

Two Line Element Set (TLE):
1 43468U 98067NR  20064.05831928  .04860327  12102-4  10158-2 0  9990
2 43468  51.6208  66.1430 0002240 149.8670 210.2481 16.30203714203978
Source of the keplerian elements: AFSPC